Regional Weather Roundup
Issued by NWS

Home | Current Version | Previous Version | Graphics & Text | Print | Product List | Glossary Off
Versions: 1 2 3 4 5 6 7 8 9 10 11 12 13 14 15 16 17 18 19 20 21 22 23 24 25 26 27 28 29 30 31 32 33 34 35 36 37 38 39 40 41 42 43 44 45 46 47 48 49 50

000
ASUS43 KDTX 281601
RWRMI
MICHIGAN HOURLY REGIONAL WEATHER ROUNDUP
NATIONAL WEATHER SERVICE DETROIT/PONTIAC MI
1200 PM EDT TUE MAR 28 2017

NOTE: "FAIR" INDICATES FEW OR NO CLOUDS BELOW 12,000 FEET WITH NO
SIGNIFICANT WEATHER AND/OR OBSTRUCTION TO VISIBILITY.

MIZ047>049-052>055-059>063-066>070-074>076-081>083-281700-
SOUTHEAST LOWER MICHIGAN

CITY           SKY/WX    TMP DP  RH WIND       PRES   REMARKS
ADRIAN         CLOUDY    45  40  82 N13       30.06R
ANN ARBOR      CLOUDY    45  38  76 N12       30.05R
BAD AXE        CLOUDY    39  36  88 N9        30.10R WCI  33
CARO           CLOUDY    39  37  90 N10       30.09R WCI  33
DETROIT CITY   CLOUDY    45  38  76 N13       30.05R
DETROIT        CLOUDY    47  38  71 N13       30.06R
FLINT          CLOUDY    42  38  85 N9        30.09R
GROSSE ILE     CLOUDY    47  39  73 N14       30.04R
HILLSDALE      CLOUDY    43  37  81 N6        30.05R
HOWELL         CLOUDY    42  38  85 N6        30.07R

CITY           SKY/WX    TMP DP  RH WIND       PRES   REMARKS
JACKSON        CLOUDY    44  38  79 N12       30.06R
LAMBERTVILLE   CLOUDY    49  41  74 N9        30.04S
LANSING        CLOUDY    42  38  85 N10       30.09S
LAPEER         CLOUDY    40  38  91 NE13      30.08R WCI  33
MASON          CLOUDY    43  40  87 NE9       30.08R
MONROE         CLOUDY    47  41  78 N8        30.04R
MT. CLEMENS    CLOUDY    44  40  87 N16       30.04R
PONTIAC        CLOUDY    43  37  79 N9        30.05R
PORT HOPE        N/A     40  36  86 N5        30.09R
PORT HURON     CLOUDY    41  36  81 N12G17    30.06R
TRI CITIES     CLOUDY    40  38  93 NE16      30.12R WCI  31
MIDLAND        CLOUDY    42  35  76 NE7       30.11S
TROY           CLOUDY    45  37  75 N9        30.07R
SAGINAW HB     CLOUDY    41  36  81 N14       30.10R
$$
MIZ043>046-050>051-056>058-064>065-071>073-077>080-281700-
SOUTHWEST LOWER MICHIGAN

CITY           SKY/WX    TMP DP  RH WIND       PRES   REMARKS
BATTLE CREEK   LGT RAIN  44  40  85 N12       30.08R
BENTON HARBOR  CLOUDY    43  38  82 VRB7      30.09S
BIG RAPIDS     CLOUDY    40  35  81 NE3       30.11R
COLDWATER      CLOUDY    46  40  82 N9        30.06R
FREMONT        CLOUDY    43  37  77 NE5       30.10S
HOLLAND        CLOUDY    46  38  73 NE6       30.10R
GRAND RAPIDS   CLOUDY    44  40  85 NE9       30.09R
IONIA          CLOUDY    41  38  89 N9        30.09R
KALAMAZOO      CLOUDY    46  38  73 N9        30.09R
LUDINGTON      CLOUDY    44  38  78 E6        30.12S
MARSHALL       CLOUDY    44  40  86 N3        30.07R
MOUNT PLEASANT CLOUDY    41  35  78 N8        30.11R
MUSKEGON       CLOUDY    46  37  71 N8        30.11R
SOUTH HAVEN    CLOUDY    45  40  85 N5        30.09S
$$
MIZ016>042-281700-
NORTHERN LOWER MICHIGAN

CITY           SKY/WX    TMP DP  RH WIND       PRES   REMARKS
ALPENA         PTSUNNY   45  33  63 N10       30.13S
BEAVER ISLAND  CLOUDY    36  34  92 N3        30.16S
BELLAIRE       CLOUDY    41  35  79 NW3       30.14S
CADILLAC       CLOUDY    39  35  83 NE3       30.10R
CHARLEVOIX     CLOUDY    38  37  92 N9        30.17S WCI  32
FRANKFORT      CLOUDY    40  34  80 E3        30.14S
GAYLORD        CLOUDY    40  32  73 NE6       30.10S
GRAYLING       PTSUNNY   43  34  70 NE10      30.11S
HARBOR SPRINGS PTSUNNY   41  35  80 E3        30.14S
HOUGHTON LAKE  CLOUDY    41  34  76 N8        30.11R
MANISTEE       CLOUDY    42  35  76 VRB6      30.13
OSCODA         CLOUDY    44  36  73 NE13      30.11S
PELLSTON       SUNNY     42  33  70 NE6       30.15R
ROGERS CITY    SUNNY     40  34  79 N9        30.15S WCI  33
TRAVERSE CITY  CLOUDY    39  35  86 N6        30.13S WCI  35
$$
MIZ007>008-015-281700-
EASTERN UPPER MICHIGAN

CITY           SKY/WX    TMP DP  RH WIND       PRES   REMARKS
KINROSS        CLOUDY    39  34  82 N6        30.16R WCI  35
MACKINAC ISLAN CLOUDY    36  36 100 N9        30.15S WCI  29
NEWBERRY       CLOUDY    35  34  96 CALM      30.15S
S. S. MARIE    SUNNY     41  33  73 CALM      30.14
MUNISING         N/A     36  33  89 CALM      30.16S
$$
MIZ004>006-011>014-085-281700-
CENTRAL UPPER MICHIGAN

CITY           SKY/WX    TMP DP  RH WIND       PRES   REMARKS
MANISTIQUE     CLOUDY    36  34  93 N3        30.17R
ESCANABA       CLOUDY    36  36 100 VRB3      30.18S FOG
MENOMINEE        N/A    N/A N/A N/A MISG        N/A
SAWYER-GWINN   SUNNY     46  32  57 CALM      30.14S
$$
MIZ001>003-009>011-084-281700-
WESTERN UPPER MICHIGAN

CITY           SKY/WX    TMP DP  RH WIND       PRES   REMARKS
IRON MOUNTAIN  SUNNY     47  31  53 CALM      30.14R
HOUGHTON       MOSUNNY   47  32  56 NW8       30.14R
COPPER HARBOR    N/A     39  33  79 N15       30.15R WCI  31
IRONWOOD       SUNNY     48  31  51 CALM      30.16R
$$

ABBREVIATIONS USED IN REMARKS
   TC - TEMPERATURE IN CELSIUS
  WCI - WIND CHILL INDEX
   HX - HEAT INDEX
  VSB - VISIBILITY




USA.gov is the U.S. government's official web portal to all federal, state and local government web resources and services.